カタログに戻る

SL-8 DEB

運用中LEO
NORAD 11752·DEBRIS·🇷🇺 Russia

打ち上げ Apr 3, 1980 から Plesetsk Cosmodrome

Loading…

次のパス (今後24時間)

TLE

最新Source: Space-Track

元期: Sep 14, 2026, 06:32 UTC

1 11752U 80026C   26257.27280258 -.00000037  00000-0  45548-4 0  9999
2 11752  65.8420 188.6795 0030398 243.3039 271.3642 13.75351761331331

AllMySatでSL-8 DEBをリアルタイム追跡

Download on the App Store